LEMUR-2-ROCKETJONAH (43041 NORAD) Tracking and Keplerian Element Data

This shows tracking and keplerian element data for the satellite.

Feedback or suggestion? Click here.




ElementValue
Catalog43041
NameLEMUR-2-ROCKETJONAH
Epoch Orbit1300
Epoch Day45.45461853
Epoch Year2018
RAAN278.7844
Inclination51.639
Eccentricity0.0001311
Argument of Perigee93.5666
Mean Anonmoly266.5468
Mean Motion15.38641995
Decay Rate4.816E-05
L11 43041U 17071E 18045.45461853 .00004816 00000-0 13431-3 0 9996
L22 43041 51.6390 278.7844 0001311 93.5666 266.5468 15.38641995 13001

Live tracking and technical data element details for LEMUR-2-ROCKETJONAH (NORAD 43041). LEMUR-2-ROCKETJONAH can be tracked NOW for your location showing map with azimuth and elevation plus other details from your city location.

Track the satellite on the map from your city or location and see movement details for azimuth, elevation, latitude, longitude, range, height, and movement on the map or in text.







IsCatalogInMostPopularTable: catalog: 43041, numindb: 97
Update: records affected: 1



GetName: 43041 LEMUR-2-ROCKETJONAH

Hit Count: updated at: Wed, 18 Jul 2018 20:22:04 GMT